Overview Statistics Trail Chart Weather Telemetry Raw packets
 

This is the latest recevied weather packets stored in our database for station/object W6UA-13. If no packets are shown the sender has not sent any weather packets the latest 10 day(s).

<< 1 2 3 4 >>
Time Temp. Humidity Pressure Rain* Wind** Luminosity Snow
1788574576 18.33° C 83% 1014.1 hPa 0 mm - 5 W/m² -
1788573676 18.33° C 82% 1014.2 hPa 0 mm - 18 W/m² -
1788572776 18.89° C 81% 1014.2 hPa 0 mm - 37 W/m² -
1788571876 18.89° C 81% 1014.2 hPa 0 mm - 86 W/m² -
1788570976 19.44° C 79% 1014.2 hPa 0 mm - 70 W/m² -
1788570076 20° C 78% 1014.3 hPa 0 mm - 109 W/m² -
1788569176 20.56° C 75% 1014.2 hPa 0 mm - 107 W/m² -
1788568276 21.11° C 74% 1014.2 hPa 0 mm - 234 W/m² -
1788567376 21.11° C 73% 1014.2 hPa 0 mm - 352 W/m² -
1788566476 21.67° C 73% 1014.2 hPa 0 mm - 411 W/m² -
1788565576 21.11° C 74% 1014.1 hPa 0 mm - 461 W/m² -
1788564676 21.67° C 73% 1013.9 hPa 0 mm - 501 W/m² -
1788563776 22.22° C 71% 1013.8 hPa 0 mm - 540 W/m² -
1788562876 22.22° C 72% 1014 hPa 0 mm - 577 W/m² -
1788561976 21.67° C 73% 1014.1 hPa 0 mm - 610 W/m² -
1788561076 22.78° C 71% 1014.1 hPa 0 mm - 652 W/m² -
1788560176 22.22° C 71% 1014.1 hPa 0 mm - 673 W/m² -
1788559276 22.22° C 72% 1014.2 hPa 0 mm - 705 W/m² -
1788558376 21.67° C 74% 1014.1 hPa 0 mm - 613 W/m² -
1788557476 22.22° C 71% 1014.2 hPa 0 mm - 773 W/m² -
1788556576 22.22° C 72% 1014.1 hPa 0 mm - 770 W/m² -
1788555676 21.67° C 72% 1014.1 hPa 0 mm - 780 W/m² -
1788554776 22.78° C 69% 1014.1 hPa 0 mm - 788 W/m² -
1788553876 22.22° C 71% 1014.2 hPa 0 mm - 793 W/m² -
1788552976 22.22° C 69% 1014.2 hPa 0 mm - 795 W/m² -

* Rain latest hour (hover to see other rain measurements)
** Current wind speed in m/s (hover to see current wind gust speed)